EW5029 Weather Reports


Display with metric or nautical units.
time (UTC)temp
F
wind
direction
speed
MPH
gust
MPH
rain 1hr
in
rain 24hr
in
rain mn
in
humidity
%
barometer
mb
20260901173054 66 314 2.0 8.0 0.00 0.13 0.13 70 1020.6
20260901172554 66 313 3.0 9.0 0.00 0.13 0.13 70 1020.7
20260901172054 66 318 4.0 10.0 0.00 0.13 0.13 69 1020.6
20260901171557 66 320 2.0 11.0 0.00 0.13 0.13 70 1020.6
20260901171154 66 217 2.0 11.0 0.00 0.13 0.13 69 1020.6
20260901170553 66 310 2.0 8.0 0.00 0.13 0.13 69 1020.7
20260901170058 66 194 1.0 8.0 0.00 0.13 0.13 68 1020.7
20260901165552 66 202 2.0 8.0 0.00 0.13 0.13 68 1020.8
20260901165051 67 5 3.0 8.0 0.00 0.13 0.13 70 1020.7
20260901164551 67 332 1.0 11.0 0.00 0.13 0.13 70 1020.7
20260901164052 67 198 2.0 11.0 0.00 0.13 0.13 69 1020.7
20260901163550 67 271 2.0 10.0 0.00 0.13 0.13 68 1020.6
20260901163050 67 5 3.0 8.0 0.00 0.13 0.13 68 1020.6
20260901162549 67 355 3.0 11.0 0.00 0.13 0.13 69 1020.6
20260901162049 67 340 5.0 12.0 0.00 0.13 0.13 68 1020.6
20260901161650 67 318 5.0 13.0 0.00 0.13 0.13 68 1020.6
20260901161048 67 319 3.0 12.0 0.00 0.13 0.13 67 1020.6
20260901160548 68 24 2.0 11.0 0.00 0.13 0.13 67 1020.6
20260901160048 68 14 4.0 13.0 0.00 0.13 0.13 67 1020.5
20260901155548 68 347 4.0 13.0 0.00 0.13 0.13 67 1020.5
20260901155047 68 321 2.0 11.0 0.00 0.13 0.13 66 1020.5
20260901154547 68 319 2.0 11.0 0.00 0.13 0.13 65 1020.6
20260901154048 68 321 2.0 8.0 0.00 0.13 0.13 68 1020.5
20260901153549 68 274 2.0 8.0 0.00 0.13 0.13 68 1020.5
20260901153048 67 313 4.0 11.0 0.00 0.13 0.13 67 1020.5
20260901152547 67 338 5.0 11.0 0.00 0.13 0.13 67 1020.5
20260901152046 68 315 3.0 14.0 0.00 0.13 0.13 66 1020.6
20260901151547 68 315 3.0 14.0 0.00 0.13 0.13 67 1020.5
20260901151050 68 316 4.0 10.0 0.00 0.13 0.13 65 1020.5
20260901150545 68 245 2.0 9.0 0.00 0.13 0.13 66 1020.5
20260901150048 68 347 1.0 10.0 0.00 0.13 0.13 66 1020.4
20260901145546 68 325 5.0 10.0 0.00 0.13 0.13 65 1020.3
20260901145045 69 338 3.0 10.0 0.00 0.13 0.13 64 1020.3
20260901144545 69 360 2.0 8.0 0.00 0.13 0.13 65 1020.4
20260901144045 69 315 2.0 10.0 0.00 0.13 0.13 65 1020.3
20260901143549 69 311 3.0 10.0 0.00 0.13 0.13 64 1020.4
20260901143054 70 285 3.0 9.0 0.00 0.13 0.13 63 1020.4
20260901142544 69 181 1.0 11.0 0.00 0.13 0.13 66 1020.5
20260901142044 69 301 4.0 11.0 0.00 0.13 0.13 64 1020.5
20260901141548 70 323 3.0 8.0 0.00 0.13 0.13 65 1020.5
20260901141045 70 135 2.0 6.0 0.00 0.13 0.13 64 1020.5
20260901140545 69 10 2.0 7.0 0.00 0.13 0.13 66 1020.4
20260901140043 69 317 1.0 10.0 0.00 0.13 0.13 67 1020.4
20260901135543 68 331 2.0 11.0 0.00 0.13 0.13 66 1020.5
20260901135042 69 343 3.0 10.0 0.00 0.13 0.13 66 1020.6
20260901134542 68 360 2.0 10.0 0.00 0.13 0.13 69 1020.5
20260901134042 68 355 3.0 12.0 0.00 0.13 0.13 67 1020.4
20260901133542 67 320 4.0 13.0 0.00 0.13 0.13 68 1020.4
20260901133052 67 315 3.0 13.0 0.00 0.13 0.13 68 1020.6
20260901132541 67 325 4.0 15.0 0.00 0.13 0.13 66 1020.5
20260901132044 68 317 6.0 15.0 0.00 0.13 0.13 65 1020.5
20260901131541 68 355 5.0 14.0 0.00 0.13 0.13 65 1020.4
20260901131040 69 14 4.0 14.0 0.00 0.13 0.13 65 1020.3
20260901130540 69 10 3.0 12.0 0.00 0.13 0.13 64 1020.3
20260901130041 69 338 5.0 11.0 0.00 0.13 0.13 63 1020.4
20260901125538 69 326 1.0 9.0 0.00 0.13 0.13 67 1020.4
20260901125040 69 355 2.0 12.0 0.00 0.13 0.13 66 1020.4
20260901124537 68 337 6.0 12.0 0.00 0.13 0.13 64 1020.5
20260901124039 69 300 4.0 12.0 0.00 0.13 0.13 68 1020.5
20260901123536 68 296 4.0 12.0 0.00 0.13 0.13 66 1020.5
20260901123036 68 322 4.0 12.0 0.00 0.13 0.13 65 1020.4
20260901122536 68 9 4.0 11.0 0.00 0.13 0.13 65 1020.4
20260901122035 68 317 5.0 11.0 0.00 0.13 0.13 66 1020.5
20260901121534 68 326 2.0 11.0 0.00 0.13 0.13 69 1020.5
20260901121034 67 296 3.0 13.0 0.00 0.13 0.13 68 1020.4
20260901120534 67 321 4.0 13.0 0.00 0.13 0.13 68 1020.4
20260901120036 67 333 5.0 12.0 0.00 0.13 0.13 70 1020.4
20260901115532 66 326 4.0 11.0 0.00 0.13 0.13 69 1020.4
20260901115035 66 317 5.0 13.0 0.00 0.13 0.13 68 1020.5
20260901114533 66 290 4.0 14.0 0.00 0.13 0.13 70 1020.3
20260901114131 66 355 7.0 14.0 0.00 0.13 0.13 70 1020.4
20260901113531 66 342 3.0 11.0 0.00 0.13 0.13 70 1020.4
20260901113031 67 319 4.0 13.0 0.00 0.13 0.13 68 1020.4
20260901112530 67 327 5.0 13.0 0.00 0.13 0.13 68 1020.3
20260901112032 67 55 4.0 11.0 0.00 0.13 0.13 70 1020.3
20260901111529 67 5 3.0 14.0 0.00 0.13 0.13 70 1020.3
20260901111130 67 313 4.0 16.0 0.00 0.13 0.13 70 1020.3
20260901110528 67 310 7.0 16.0 0.00 0.13 0.13 66 1020.2
20260901110027 67 340 7.0 14.0 0.00 0.13 0.13 67 1020.2
20260901105526 66 311 4.0 15.0 0.00 0.15 0.13 69 1020.3
20260901105025 67 299 5.0 15.0 0.00 0.15 0.13 67 1020.3
20260901104539 67 317 4.0 13.0 0.00 0.15 0.13 70 1020.2
20260901104024 67 20 5.0 14.0 0.00 0.15 0.13 69 1020.2
20260901103525 66 231 3.0 14.0 0.00 0.15 0.13 69 1020.1
20260901103024 66 335 6.0 13.0 0.00 0.15 0.13 70 1020.1
20260901102523 66 24 5.0 16.0 0.00 0.15 0.13 71 1020.1
20260901102023 66 48 6.0 16.0 0.00 0.15 0.13 68 1020.0
20260901101522 67 243 7.0 15.0 0.00 0.15 0.13 68 1020.0
20260901101021 67 309 4.0 12.0 0.00 0.15 0.13 71 1020.0
20260901100520 66 355 1.0 12.0 0.00 0.15 0.13 72 1020.0
20260901100020 66 333 3.0 14.0 0.00 0.15 0.13 70 1019.9
20260901095518 66 326 6.0 14.0 0.00 0.43 0.13 70 1020.0
20260901095018 66 265 4.0 14.0 0.00 0.43 0.13 72 1020.0
20260901094517 66 14 5.0 14.0 0.00 0.43 0.13 71 1019.9
20260901094016 66 346 5.0 12.0 0.00 0.43 0.13 72 1019.8
20260901093515 66 219 3.0 12.0 0.00 0.43 0.13 73 1019.8
20260901093015 66 269 3.0 11.0 0.00 0.43 0.13 73 1019.7
20260901092514 66 313 4.0 8.0 0.00 0.43 0.13 73 1019.8
20260901092013 66 35 2.0 11.0 0.00 0.43 0.13 75 1019.7
20260901091517 66 360 4.0 11.0 0.00 0.43 0.13 72 1019.7
20260901091011 66 325 3.0 13.0 0.00 0.43 0.13 74 1019.8
20260901090510 66 337 4.0 13.0 0.00 0.43 0.13 74 1019.7
20260901090013 65 331 6.0 12.0 0.00 0.43 0.13 73 1019.7
20260901085507 66 325 4.0 10.0 0.00 0.43 0.13 77 1019.6
20260901085006 65 327 4.0 14.0 0.00 0.43 0.13 76 1019.5
20260901084505 65 314 4.0 14.0 0.00 0.43 0.13 76 1019.5
20260901084006 65 333 4.0 10.0 0.00 0.43 0.13 77 1019.4
20260901083503 65 22 3.0 11.0 0.00 0.43 0.13 78 1019.4
20260901083003 65 82 4.0 11.0 0.00 0.43 0.13 77 1019.4
20260901082501 65 320 2.0 12.0 0.00 0.43 0.13 78 1019.3
20260901082100 64 326 5.0 12.0 0.00 0.43 0.13 77 1019.3
20260901081559 64 360 3.0 11.0 0.00 0.43 0.13 80 1019.2
20260901081102 64 22 4.0 9.0 0.00 0.43 0.13 80 1019.2
20260901080558 64 336 2.0 6.0 0.00 0.43 0.13 82 1019.1
20260901080056 64 321 2.0 9.0 0.00 0.43 0.13 84 1019.1
20260901075555 63 340 1.0 8.0 0.00 0.43 0.13 85 1019.0
20260901075053 63 9 2.0 8.0 0.00 0.43 0.13 87 1018.9
20260901074552 62 333 2.0 6.0 0.00 0.43 0.13 89 1019.0
20260901074151 62 304 3.0 6.0 0.00 0.43 0.13 90 1018.9
20260901073549 61 328 3.0 6.0 0.00 0.43 0.13 92 1018.9
20260901073049 61 311 1.0 3.0 0.00 0.43 0.13 93 1018.8
20260901072549 61 328 1.0 4.0 0.00 0.43 0.13 94 1018.8
20260901072049 61 321 1.0 4.0 0.00 0.43 0.13 95 1018.7
20260901071602 61 321 1.0 4.0 0.00 0.43 0.13 96 1018.7
20260901071048 61 318 0.0 4.0 0.00 0.43 0.13 96 1018.7
20260901070546 60 348 0.0 3.0 0.00 0.43 0.13 96 1018.6
20260901070045 60 346 0.0 4.0 0.00 0.43 0.13 96 1018.5
20260901065543 60 303 0.0 2.0 0.00 0.44 0.13 96 1018.5
20260901065042 60 286 0.0 4.0 0.00 0.44 0.13 96 1018.4
20260901064541 60 290 0.0 3.0 0.00 0.44 0.13 97 1018.4
20260901064041 60 300 0.0 0.0 0.00 0.44 0.13 97 1018.4
20260901063540 59 326 0.0 0.0 0.00 0.44 0.13 97 1018.4
20260901063040 59 326 0.0 0.0 0.00 0.44 0.13 97 1018.4
20260901062539 59 326 0.0 0.0 0.00 0.44 0.13 97 1018.4
20260901062042 59 326 0.0 0.0 0.00 0.44 0.13 97 1018.4
20260901061536 59 326 0.0 0.0 0.00 0.44 0.13 96 1018.2
20260901061035 59 326 0.0 0.0 0.00 0.44 0.13 96 1018.2
20260901060534 59 326 0.0 0.0 0.00 0.44 0.13 96 1018.1
20260901060033 59 326 0.0 0.0 0.00 0.44 0.13 96 1018.1
20260901055536 59 326 0.0 2.0 0.00 0.44 0.13 96 1018.0
20260901055034 59 326 0.0 2.0 0.00 0.44 0.13 96 1018.0
20260901054530 59 326 0.0 2.0 0.00 0.44 0.13 96 1017.9
20260901054030 59 328 0.0 3.0 0.00 0.44 0.13 96 1017.8
20260901053530 59 317 0.0 2.0 0.00 0.44 0.13 97 1017.7
20260901053028 59 325 0.0 2.0 0.00 0.44 0.13 97 1017.8
20260901052528 59 327 0.0 2.0 0.00 0.44 0.13 97 1017.7
20260901052030 59 305 0.0 0.0 0.00 0.44 0.13 97 1017.8
20260901051527 59 304 0.0 0.0 0.00 0.44 0.13 97 1017.7
20260901051026 59 261 0.0 0.0 0.00 0.44 0.13 97 1017.7
20260901050526 59 261 0.0 0.0 0.00 0.44 0.13 97 1017.6
20260901050026 59 261 0.0 0.0 0.00 0.44 0.13 97 1017.6
20260901045525 59 261 0.0 0.0 0.00 0.44 0.13 96 1017.6
20260901045027 59 261 0.0 0.0 0.00 0.44 0.13 96 1017.5
20260901044523 59 261 0.0 0.0 0.00 0.44 0.13 96 1017.4
20260901044023 59 261 0.0 0.0 0.00 0.44 0.13 96 1017.4
20260901043524 59 261 0.0 0.0 0.00 0.44 0.13 96 1017.4
20260901043027 59 261 0.0 0.0 0.00 0.44 0.13 96 1017.3
20260901042525 59 261 0.0 0.0 0.00 0.44 0.13 96 1017.3
20260901042020 59 261 0.0 0.0 0.00 0.44 0.13 96 1017.2
20260901041521 59 261 0.0 0.0 0.00 0.44 0.13 96 1017.2
20260901041020 59 261 0.0 0.0 0.00 0.44 0.13 96 1017.2
20260901040521 58 261 0.0 0.0 0.00 0.44 0.13 96 1017.1
20260901040020 58 261 0.0 0.0 0.00 0.44 0.13 96 1017.1
20260901035519 58 261 0.0 0.0 0.00 0.44 0.13 96 1017.1
20260901035019 58 261 0.0 0.0 0.00 0.44 0.13 96 1017.2
20260901034519 58 261 0.0 0.0 0.00 0.44 0.13 96 1017.1
20260901034017 58 261 0.0 0.0 0.00 0.44 0.13 96 1017.1
20260901033519 59 261 0.0 0.0 0.00 0.44 0.13 96 1017.1
20260901033018 59 261 0.0 0.0 0.00 0.44 0.13 96 1017.0
20260901032517 59 261 0.0 0.0 0.00 0.44 0.13 95 1017.0
20260901032020 59 261 0.0 0.0 0.00 0.44 0.13 96 1017.0
20260901031529 59 261 0.0 0.0 0.00 0.44 0.13 95 1017.0
20260901031019 59 261 0.0 0.0 0.00 0.44 0.13 95 1016.9
20260901030515 59 261 0.0 0.0 0.00 0.44 0.13 95 1017.0
20260901030015 59 261 0.0 0.0 0.00 0.44 0.13 95 1016.9
20260901025517 59 261 0.0 0.0 0.00 0.44 0.13 95 1016.8
20260901025018 59 261 0.0 0.0 0.00 0.44 0.13 95 1016.8
20260901024514 59 261 0.0 0.0 0.00 0.44 0.13 95 1016.8
20260901024013 59 261 0.0 0.0 0.00 0.44 0.13 95 1016.8
20260901023512 60 261 0.0 0.0 0.00 0.44 0.13 95 1016.8
20260901023023 60 261 0.0 0.0 0.02 0.44 0.13 95 1016.9
20260901022517 60 261 0.0 0.0 0.09 0.44 0.13 95 1016.9
20260901022013 60 261 0.0 0.0 0.13 0.44 0.13 95 1016.9
20260901021518 60 261 0.0 0.0 0.13 0.44 0.13 95 1016.9
20260901021012 60 261 0.0 0.0 0.13 0.44 0.13 95 1016.9
20260901020513 61 261 0.0 0.0 0.13 0.44 0.13 95 1016.9
20260901020026 61 261 0.0 0.0 0.13 0.44 0.13 95 1016.8
20260901015510 61 261 0.0 0.0 0.13 0.44 0.13 95 1016.8
20260901015011 61 261 0.0 0.0 0.13 0.44 0.13 95 1016.8
20260901014515 61 261 0.0 0.0 0.13 0.44 0.13 95 1016.7
20260901014011 61 261 0.0 0.0 0.13 0.44 0.13 95 1016.7
20260901013516 61 261 0.0 4.0 0.13 0.44 0.13 95 1016.7
20260901013024 61 263 1.0 8.0 0.09 0.41 0.09 95 1016.8
20260901012510 59 74 0.0 2.0 0.02 0.33 0.02 95 1016.8
20260901012009 59 244 0.0 0.0 0.00 0.31 0.00 94 1016.5
20260901011514 59 244 0.0 0.0 0.00 0.31 0.00 94 1016.5
20260901011009 59 244 0.0 0.0 0.00 0.31 0.00 94 1016.5
20260901010507 59 244 0.0 0.0 0.00 0.31 0.00 94 1016.5
20260901010008 59 244 0.0 0.0 0.00 0.31 0.00 93 1016.5
20260901005505 59 244 0.0 0.0 0.00 0.31 0.00 93 1016.5
20260901005006 59 244 0.0 0.0 0.00 0.31 0.00 93 1016.5
20260901004505 59 244 0.0 0.0 0.00 0.31 0.00 93 1016.4
20260901004004 59 244 0.0 0.0 0.00 0.31 0.00 93 1016.5
20260901003504 59 244 0.0 0.0 0.00 0.31 0.00 93 1016.4
20260901003003 59 244 0.0 0.0 0.00 0.31 0.00 93 1016.4
20260901002503 59 244 0.0 0.0 0.00 0.31 0.00 93 1016.4
20260901002003 60 244 0.0 0.0 0.00 0.31 0.00 93 1016.4
20260901001505 60 244 0.0 0.0 0.00 0.31 0.00 93 1016.4
20260901001001 60 244 0.0 0.0 0.00 0.31 0.00 93 1016.4
20260901000503 60 244 0.0 0.0 0.00 0.31 0.00 92 1016.3
20260901000001 60 244 0.0 0.0 0.00 0.31 0.00 92 1016.3
20260831235600 60 244 0.0 0.0 0.00 0.32 0.00 92 1016.3
20260831235101 60 244 0.0 0.0 0.00 0.32 0.00 92 1016.4
20260831234559 60 244 0.0 0.0 0.00 0.32 0.00 92 1016.2
20260831234058 60 244 0.0 0.0 0.00 0.32 0.00 92 1016.2
20260831233556 61 244 0.0 0.0 0.00 0.32 0.00 92 1016.2
20260831233056 61 244 0.0 0.0 0.00 0.32 0.00 92 1016.1
20260831232555 61 244 0.0 0.0 0.00 0.32 0.00 92 1016.1
20260831232055 61 244 0.0 0.0 0.00 0.32 0.00 92 1016.0
20260831231555 61 244 0.0 0.0 0.00 0.32 0.00 92 1016.0
20260831231054 61 244 0.0 0.0 0.00 0.32 0.00 91 1016.0
20260831230554 61 244 0.0 0.0 0.00 0.32 0.00 91 1016.0
20260831230053 61 244 0.0 0.0 0.00 0.32 0.00 91 1016.0
20260831225554 62 244 0.0 0.0 0.00 0.32 0.00 91 1016.0
20260831225054 62 244 0.0 0.0 0.00 0.32 0.00 91 1016.0
20260831224555 62 244 0.0 1.0 0.00 0.32 0.00 91 1016.0
20260831224051 62 244 0.0 2.0 0.00 0.32 0.00 91 1015.9
20260831223551 62 244 0.0 3.0 0.00 0.32 0.00 91 1015.9
20260831223050 62 333 0.0 1.0 0.00 0.32 0.00 91 1015.9
20260831222549 62 333 0.0 0.0 0.00 0.32 0.00 91 1015.8
20260831222049 62 333 0.0 0.0 0.00 0.32 0.00 90 1015.8
20260831221559 62 333 0.0 0.0 0.00 0.32 0.00 90 1015.7
20260831221049 62 333 0.0 0.0 0.00 0.32 0.00 90 1015.8
20260831220547 62 333 0.0 0.0 0.00 0.32 0.00 90 1015.8
20260831220047 62 333 0.0 0.0 0.00 0.32 0.00 90 1015.7
20260831215547 62 333 0.0 0.0 0.00 0.55 0.32 90 1015.7
20260831215045 62 333 0.0 0.0 0.00 0.55 0.32 90 1015.8
20260831214555 62 333 0.0 0.0 0.00 0.55 0.32 90 1015.7
20260831214046 62 333 0.0 0.0 0.00 0.55 0.32 90 1015.7
20260831213545 62 333 0.0 0.0 0.00 0.55 0.32 89 1015.7
20260831213051 62 333 0.0 0.0 0.00 0.55 0.32 89 1015.7
20260831212544 62 333 0.0 0.0 0.00 0.55 0.32 89 1015.6
20260831212047 62 333 0.0 0.0 0.00 0.55 0.32 89 1015.6
20260831211544 62 333 0.0 0.0 0.00 0.55 0.32 89 1015.6
20260831211043 62 333 0.0 0.0 0.00 0.55 0.32 88 1015.5
20260831210543 62 333 0.0 0.0 0.00 0.55 0.32 88 1015.5
20260831210042 62 333 0.0 0.0 0.00 0.55 0.32 88 1015.5
20260831205541 62 333 0.0 0.0 0.00 0.56 0.32 87 1015.4
20260831205042 62 333 0.0 0.0 0.00 0.56 0.32 87 1015.4
20260831204545 62 333 0.0 0.0 0.00 0.56 0.32 87 1015.3
20260831204040 62 333 0.0 0.0 0.00 0.56 0.32 86 1015.3
20260831203538 63 333 0.0 0.0 0.00 0.56 0.32 86 1015.2
20260831203048 63 333 0.0 0.0 0.00 0.56 0.32 86 1015.2
20260831202543 63 333 0.0 0.0 0.00 0.56 0.32 85 1015.1
20260831202038 63 333 0.0 0.0 0.00 0.56 0.32 85 1015.2
20260831201538 64 333 0.0 0.0 0.00 0.56 0.32 85 1015.2
20260831201038 64 333 0.0 1.0 0.00 0.56 0.32 85 1015.1
20260831200538 64 333 0.0 4.0 0.00 0.56 0.32 85 1015.1
20260831200040 64 333 0.0 4.0 0.00 0.56 0.32 85 1015.0
20260831195536 64 321 0.0 4.0 0.00 0.56 0.32 84 1015.0
20260831195035 64 336 0.0 3.0 0.00 0.56 0.32 84 1014.9
20260831194535 64 322 1.0 5.0 0.00 0.56 0.32 84 1014.9
20260831194037 64 318 0.0 5.0 0.00 0.56 0.32 84 1014.8
20260831193534 64 322 1.0 5.0 0.00 0.56 0.32 83 1014.7
20260831193034 65 347 1.0 4.0 0.00 0.56 0.32 83 1014.7
20260831192532 65 333 1.0 4.0 0.00 0.56 0.32 83 1014.7
20260831192032 65 338 0.0 5.0 0.00 0.56 0.32 83 1014.6
20260831191543 65 208 1.0 6.0 0.00 0.56 0.32 83 1014.6
20260831191031 65 360 1.0 6.0 0.00 0.56 0.32 83 1014.5
20260831190530 65 355 1.0 6.0 0.00 0.56 0.32 83 1014.4
20260831190030 65 309 1.0 6.0 0.00 0.56 0.32 82 1014.4
20260831185528 65 332 2.0 6.0 0.00 0.56 0.32 82 1014.3
20260831185031 65 322 2.0 6.0 0.00 0.56 0.32 82 1014.2
20260831184529 65 311 2.0 6.0 0.00 0.56 0.32 82 1014.2
20260831184031 65 310 1.0 9.0 0.00 0.56 0.32 82 1014.0
20260831183529 65 316 1.0 10.0 0.00 0.56 0.32 82 1014.0
20260831183026 66 78 2.0 10.0 0.00 0.56 0.32 81 1013.9
20260831182525 66 336 2.0 9.0 0.00 0.56 0.32 81 1013.8
20260831182025 66 313 2.0 10.0 0.00 0.56 0.32 81 1013.8
20260831181524 66 325 4.0 10.0 0.00 0.56 0.32 81 1013.6
20260831181023 66 355 2.0 9.0 0.00 0.56 0.32 82 1013.6
20260831180521 66 296 2.0 8.0 0.00 0.56 0.32 82 1013.5
20260831180021 66 355 2.0 10.0 0.00 0.56 0.32 81 1013.4
20260831175521 66 9 2.0 10.0 0.00 0.56 0.32 81 1013.4
20260831175020 66 34 2.0 6.0 0.00 0.56 0.32 81 1013.3
20260831174520 66 318 1.0 9.0 0.00 0.56 0.32 81 1013.2
20260831174023 66 317 3.0 12.0 0.00 0.56 0.32 80 1013.2
20260831173519 66 307 4.0 12.0 0.00 0.56 0.32 80 1013.1